Location: Adavinekkalam
(16.6301°N, 80.7229°E)
Time: 19:40:35
(UTC+00:00)

SPOT 5 - Pass Details

Date: 15 May 2026
Orbit: 619 x 801 km, 98.0° (Epoch: 6 June)

Event Time Altitude Azimuth Distance (km) Brightness Sun altitude
Exits shadow 13:42:59 13° 103° (ESE) 1,775 4.3 -10.2°
Maximum altitude 13:44:49 17° 74° (ENE) 1,586 4.2 -10.6°
Drops below altitude 10° 13:47:32 10° 34° (NE) 1,983 5.1 -11.2°
Sets 13:50:23 0° 14° (NNE) 2,902 6.1 -11.9°
